FW8892 Weather Reports


time (UTC)temp
C
wind
direction
speed
KPH
gust
KPH
rain 1hr
cm
rain 24hr
cm
rain mn
cm
humidity
%
barometer
mb
20260504081556 11 142 4.8 11.3 0.00 0.00 0.00 74 1013.5
20260504081030 11 186 4.8 11.3 0.00 0.00 0.00 74 1013.5
20260504080529 11 184 3.2 12.9 0.00 0.00 0.00 74 1013.6
20260504050530 10 178 0.0 6.4 0.00 0.00 0.00 74 1015.1
20260504045529 10 0 0.0 3.2 0.00 0.00 0.00 72 1015.2
20260504045029 10 0 0.0 3.2 0.00 0.00 0.00 72 1015.3
20260504044546 11 0 0.0 3.2 0.00 0.00 0.00 71 1015.3
20260504044029 11 0 0.0 3.2 0.00 0.00 0.00 69 1015.2
20260504043529 11 0 0.0 1.6 0.00 0.00 0.00 69 1015.1
20260504043051 11 0 0.0 1.6 0.00 0.00 0.00 68 1015.2
20260504042529 12 0 0.0 0.0 0.00 0.00 0.00 68 1015.2
20260504042030 12 0 0.0 3.2 0.00 0.00 0.00 65 1015.2
20260504041543 12 0 0.0 3.2 0.00 0.00 0.00 65 1015.1
20260504041029 12 0 0.0 6.4 0.00 0.00 0.00 64 1015.0
20260504040526 12 0 1.6 8.0 0.00 0.00 0.00 63 1014.9
20260504040049 12 182 1.6 11.3 0.00 0.00 0.00 63 1014.8
20260504035530 12 193 1.6 11.3 0.00 0.00 0.00 63 1014.9
20260504035028 12 217 1.6 17.7 0.00 0.00 0.00 63 1014.8
20260504034547 12 203 4.8 24.1 0.00 0.00 0.00 63 1014.8
20260504034025 12 155 6.4 24.1 0.00 0.00 0.00 63 1014.8
20260504033528 12 202 4.8 17.7 0.00 0.00 0.00 64 1014.9
20260504033049 12 203 6.4 17.7 0.00 0.00 0.00 65 1014.7
20260504032529 12 183 6.4 16.1 0.00 0.00 0.00 66 1014.8
20260504032028 12 222 6.4 16.1 0.00 0.00 0.00 67 1014.9
20260504031548 11 190 4.8 16.1 0.00 0.00 0.00 69 1015.1
20260504031026 11 123 6.4 14.5 0.00 0.00 0.00 70 1015.1
20260504030529 10 173 4.8 11.3 0.00 0.00 0.00 72 1015.2
20260504030045 10 180 3.2 9.7 0.00 0.00 0.00 73 1015.1
20260504025526 10 157 1.6 6.4 0.00 0.00 0.00 74 1015.1
20260504025030 10 168 0.0 3.2 0.00 0.00 0.00 74 1015.3
20260504024554 10 0 0.0 1.6 0.00 0.00 0.00 74 1015.3
20260504024026 10 0 0.0 3.2 0.00 0.00 0.00 74 1015.3
20260504023529 10 0 0.0 3.2 0.00 0.00 0.00 73 1015.4
20260504023052 10 203 0.0 1.6 0.00 0.00 0.00 73 1015.4
20260504022529 10 0 0.0 0.0 0.00 0.00 0.00 72 1015.4
20260504022029 11 0 0.0 0.0 0.00 0.00 0.00 72 1015.3
20260504021547 11 0 0.0 0.0 0.00 0.00 0.00 71 1015.3
20260504021028 11 0 0.0 0.0 0.00 0.00 0.00 70 1015.5
20260504020528 11 0 0.0 0.0 0.00 0.00 0.00 69 1015.4
20260504020047 12 0 0.0 0.0 0.00 0.00 0.00 68 1015.4
20260504015528 12 0 0.0 0.0 0.00 0.00 0.00 67 1015.5
20260504015030 12 0 0.0 0.0 0.00 0.00 0.00 65 1015.4
20260504014547 13 0 0.0 0.0 0.00 0.00 0.00 65 1015.5
20260504014030 13 0 0.0 1.6 0.00 0.00 0.00 63 1015.4
20260504013529 13 0 0.0 3.2 0.00 0.00 0.00 60 1015.2
20260504013054 13 0 0.0 3.2 0.00 0.00 0.00 58 1015.0
20260504012526 14 203 0.0 1.6 0.00 0.00 0.00 57 1015.1
20260504012028 14 0 0.0 3.2 0.00 0.00 0.00 56 1015.0
20260504011541 15 213 0.0 4.8 0.00 0.00 0.00 55 1014.9
20260504011028 15 0 0.0 4.8 0.00 0.00 0.00 55 1015.0
20260504010528 15 183 1.6 8.0 0.00 0.00 0.00 54 1014.9
20260504010040 15 181 1.6 8.0 0.00 0.00 0.00 53 1014.8
20260504005529 15 0 1.6 9.7 0.00 0.00 0.00 53 1014.8
20260504005029 16 186 4.8 9.7 0.00 0.00 0.00 52 1014.8
20260504004546 16 203 1.6 8.0 0.00 0.00 0.00 52 1014.8
20260504004029 16 178 1.6 8.0 0.00 0.00 0.00 51 1014.9
20260504003529 16 222 3.2 11.3 0.00 0.00 0.00 50 1015.1
20260504003046 16 221 3.2 11.3 0.00 0.00 0.00 50 1015.0
20260504002526 16 205 4.8 11.3 0.00 0.00 0.00 50 1014.9
20260504002027 17 177 4.8 11.3 0.00 0.00 0.00 49 1014.9
20260504001549 17 193 3.2 12.9 0.00 0.00 0.00 49 1015.2
20260504001027 17 198 3.2 16.1 0.00 0.00 0.00 48 1015.2
20260504000530 17 211 4.8 16.1 0.00 0.00 0.00 48 1015.1
20260504000113 17 214 3.2 16.1 0.00 0.00 0.00 47 1015.2
20260503235525 17 196 4.8 19.3 0.00 0.00 0.00 47 1015.1
20260503235026 17 192 6.4 19.3 0.00 0.00 0.00 47 1015.2
20260503234552 17 211 4.8 19.3 0.00 0.00 0.00 46 1015.2
20260503234029 17 203 4.8 19.3 0.00 0.00 0.00 46 1015.3
20260503233528 17 174 6.4 19.3 0.00 0.00 0.00 46 1015.3
20260503233041 17 188 6.4 14.5 0.00 0.00 0.00 45 1015.4
20260503232530 18 243 6.4 14.5 0.00 0.00 0.00 45 1015.4
20260503232029 18 184 6.4 14.5 0.00 0.00 0.00 45 1015.5
20260503231540 18 219 3.2 17.7 0.00 0.00 0.00 45 1015.7
20260503231030 18 180 4.8 17.7 0.00 0.00 0.00 45 1015.8
20260503230532 18 259 6.4 16.1 0.00 0.00 0.00 44 1015.9
20260503230050 18 219 4.8 14.5 0.00 0.00 0.00 44 1016.1
20260503225528 18 232 6.4 14.5 0.00 0.00 0.00 44 1016.1
20260503225029 18 278 6.4 14.5 0.00 0.00 0.00 42 1016.1
20260503224547 18 231 3.2 14.5 0.00 0.00 0.00 43 1016.2
20260503224028 18 0 4.8 14.5 0.00 0.00 0.00 41 1016.1
20260503223528 18 263 4.8 16.1 0.00 0.00 0.00 42 1016.2
20260503223044 18 288 4.8 27.4 0.00 0.00 0.00 42 1016.3
20260503222529 18 289 4.8 27.4 0.00 0.00 0.00 42 1016.4
20260503222029 18 235 4.8 16.1 0.00 0.00 0.00 39 1016.4
20260503221551 19 202 4.8 16.1 0.00 0.00 0.00 40 1016.3
20260503221026 19 223 6.4 16.1 0.00 0.00 0.00 40 1016.4
20260503220527 19 204 6.4 14.5 0.00 0.00 0.00 41 1016.4
20260503220042 19 188 4.8 12.9 0.00 0.00 0.00 41 1016.5
20260503215527 20 242 4.8 19.3 0.00 0.05 0.00 41 1016.4
20260503215029 20 227 6.4 20.9 0.00 0.05 0.00 41 1016.5
20260503214542 20 242 4.8 20.9 0.00 0.05 0.00 41 1016.5
20260503214028 20 240 8.0 20.9 0.00 0.05 0.00 40 1016.6
20260503213530 21 196 4.8 12.9 0.00 0.05 0.00 39 1016.7
20260503213045 21 230 8.0 12.9 0.00 0.05 0.00 39 1016.9
20260503212529 21 237 3.2 19.3 0.00 0.05 0.00 40 1016.9
20260503212030 21 221 6.4 19.3 0.00 0.05 0.00 39 1017.3
20260503211554 21 229 3.2 20.9 0.00 0.05 0.00 41 1017.4
20260503211029 21 242 4.8 20.9 0.00 0.05 0.00 40 1017.3
20260503210530 21 229 6.4 16.1 0.00 0.05 0.00 40 1017.4
20260503210043 21 183 4.8 17.7 0.00 0.05 0.00 41 1017.4
20260503205530 21 309 3.2 19.3 0.00 0.05 0.00 43 1017.5
20260503205029 21 253 8.0 22.5 0.00 0.05 0.00 41 1017.5
20260503204549 21 231 9.7 22.5 0.00 0.05 0.00 39 1017.7
20260503204029 21 273 3.2 11.3 0.00 0.05 0.00 43 1017.8
20260503203529 21 207 3.2 11.3 0.00 0.05 0.00 43 1017.9
20260503203057 21 286 4.8 11.3 0.00 0.05 0.00 41 1018.0
20260503202531 21 304 3.2 11.3 0.00 0.05 0.00 40 1018.2
20260503202029 21 300 1.6 11.3 0.00 0.05 0.00 42 1018.0
20260503201541 20 248 3.2 14.5 0.00 0.05 0.00 48 1018.3
20260503201030 21 214 4.8 14.5 0.00 0.05 0.00 39 1018.4
20260503200528 21 253 1.6 11.3 0.00 0.05 0.00 41 1018.5
20260503200049 20 186 3.2 11.3 0.00 0.05 0.00 42 1018.7
20260503195528 20 221 4.8 11.3 0.00 0.05 0.00 42 1018.7
20260503195028 20 199 3.2 9.7 0.00 0.05 0.00 44 1018.9
20260503194553 20 209 3.2 11.3 0.00 0.05 0.00 42 1019.0
20260503194028 20 190 4.8 17.7 0.00 0.05 0.00 43 1019.0
20260503193529 20 188 8.0 17.7 0.00 0.05 0.00 43 1019.0
20260503193050 20 211 6.4 17.7 0.00 0.05 0.00 42 1019.2
20260503192529 20 220 6.4 17.7 0.00 0.05 0.00 44 1019.3
20260503192028 20 251 6.4 14.5 0.00 0.05 0.00 45 1019.5
20260503191543 20 225 1.6 19.3 0.00 0.05 0.00 46 1019.4
20260503191029 19 194 6.4 19.3 0.00 0.05 0.00 42 1019.6
20260503190530 19 161 3.2 16.1 0.00 0.05 0.00 44 1019.5
20260503190044 19 184 3.2 16.1 0.00 0.05 0.00 47 1019.6
20260503185526 19 220 8.0 16.1 0.00 0.05 0.00 47 1019.7
20260503185029 19 194 3.2 11.3 0.00 0.05 0.00 43 1019.8
20260503184540 18 257 4.8 12.9 0.00 0.05 0.00 48 1019.8
20260503184029 18 309 3.2 14.5 0.00 0.05 0.00 45 1019.8
20260503183529 18 198 4.8 14.5 0.00 0.05 0.00 46 1019.8
20260503183042 18 182 3.2 17.7 0.00 0.05 0.00 41 1020.0
20260503182528 18 223 4.8 19.3 0.00 0.05 0.00 45 1020.1
20260503182025 18 192 9.7 19.3 0.00 0.05 0.00 42 1020.1
20260503181600 18 169 1.6 9.7 0.00 0.05 0.00 49 1020.2
20260503181025 18 236 4.8 9.7 0.00 0.05 0.00 39 1020.2
20260503180527 18 254 1.6 11.3 0.00 0.05 0.00 53 1020.3
20260503180046 18 184 3.2 11.3 0.00 0.05 0.00 44 1020.4
20260503175528 18 221 3.2 9.7 0.00 0.05 0.00 44 1020.3
20260503175029 18 230 1.6 16.1 0.00 0.05 0.00 43 1020.3
20260503174543 18 225 3.2 16.1 0.00 0.05 0.00 49 1020.5
20260503174027 18 264 4.8 16.1 0.00 0.05 0.00 47 1020.5
20260503173527 18 130 1.6 16.1 0.00 0.05 0.00 49 1020.5
20260503173053 18 253 6.4 16.1 0.00 0.05 0.00 49 1020.6
20260503172526 18 210 4.8 14.5 0.00 0.05 0.00 47 1020.7
20260503172027 17 181 1.6 14.5 0.00 0.05 0.00 47 1020.8
20260503171541 17 157 3.2 14.5 0.00 0.05 0.00 48 1020.8
20260503171028 17 169 4.8 14.5 0.00 0.05 0.00 50 1020.9
20260503170531 17 211 3.2 12.9 0.00 0.05 0.00 46 1020.9
20260503150529 15 229 3.2 12.9 0.00 0.05 0.00 45 1021.9
20260503131029 11 172 0.0 6.4 0.00 0.05 0.00 81 1021.7
20260503130527 11 0 0.0 4.8 0.00 0.05 0.00 84 1021.7
20260503110526 1 0 0.0 0.0 0.00 0.05 0.00 96 1020.7